Date,TemperatureHighF,TemperatureAvgF,TemperatureLowF,DewpointHighF,DewpointAvgF,DewpointLowF,HumidityHigh,HumidityAvg,HumidityLow,PressureMaxIn,PressureMinIn,WindSpeedMaxMPH,WindSpeedAvgMPH,GustSpeedMaxMPH,PrecipitationSumIn
2013-2-2,62.1,61.9,61.6,49.0,48.2,48.0,63,61,59,30.70,30.09,1,1,0,0.00
2013-2-4,53.0,51.8,50.5,47.0,45.0,43.0,83,80,78,30.00,29.99,1,0,0,0.00
2013-2-5,61.6,54.1,48.7,50.0,47.1,42.0,90,79,65,30.04,29.94,7,1,0,0.00
2013-2-6,67.0,56.3,47.2,50.0,46.8,41.0,89,72,48,30.06,29.95,11,2,0,0.00
2013-2-7,62.0,52.1,42.9,49.0,43.7,38.0,91,75,57,30.09,29.92,10,2,0,0.00
2013-2-8,55.3,48.4,42.2,43.0,38.3,35.0,83,71,51,29.92,29.82,15,4,0,0.01
2013-2-9,61.2,47.3,35.9,40.0,35.7,30.0,87,67,33,30.04,29.88,7,2,0,0.01
2013-2-10,59.1,48.3,38.2,42.0,38.1,32.0,88,70,47,30.04,29.96,12,2,0,0.00
2013-2-11,65.6,49.9,37.5,41.0,34.4,28.0,86,56,12,30.19,30.01,16,2,0,0.11
2013-2-12,64.8,49.4,35.7,41.0,32.6,26.0,79,52,28,30.28,30.18,14,2,0,0.11
2013-2-13,65.9,51.2,38.1,47.0,36.8,27.0,72,59,38,30.21,30.09,11,2,0,0.01
2013-2-14,78.1,54.8,39.7,53.0,39.0,30.0,75,55,10,30.14,30.00,10,2,0,0.11
2013-2-15,80.6,66.0,49.2,47.0,37.9,31.0,57,21,3,30.15,30.06,16,3,0,0.58
2013-2-16,80.8,64.0,50.5,50.0,36.1,27.0,38,21,3,30.12,29.93,11,2,0,0.18
2013-2-17,68.2,55.1,42.9,50.0,38.6,25.0,83,53,31,29.97,29.87,20,3,0,1.40
2013-2-18,66.6,55.7,46.7,49.0,45.3,41.0,88,70,46,30.01,29.89,12,2,0,1.40
2013-2-19,60.7,52.5,46.3,46.0,42.5,38.0,83,71,48,29.92,29.67,16,4,0,0.16
2013-2-20,63.6,49.5,36.8,43.0,34.3,28.0,77,57,35,29.95,29.67,8,2,0,0.00
2013-2-21,63.6,49.7,37.5,44.0,35.6,28.0,75,59,31,30.05,29.93,11,2,0,0.00
2013-2-22,68.1,51.8,38.8,42.0,35.6,29.0,74,54,18,30.14,30.05,15,2,0,0.00
2013-2-23,65.7,53.0,39.9,50.0,38.3,29.0,75,58,31,30.11,29.86,15,3,0,0.00
2013-2-24,67.5,57.1,45.6,34.0,29.0,21.0,55,21,1,30.15,29.96,14,4,0,0.29
2013-2-25,69.3,52.6,38.6,41.0,31.1,18.0,71,39,12,30.17,30.01,12,2,0,0.00
2013-2-26,75.3,55.0,38.1,49.0,35.5,27.0,69,44,5,30.08,29.93,14,2,0,0.00
2013-2-27,76.2,60.7,48.3,42.0,31.2,22.0,33,17,1,30.24,30.07,15,3,0,0.04
2013-2-28,81.5,62.2,47.8,48.0,34.5,22.0,40,22,1,30.26,30.18,15,2,0,0.04
2013-3-1,87.1,68.2,51.5,53.0,38.7,27.0,40,17,1,30.25,30.10,14,3,0,0.00
2013-3-2,83.0,65.3,51.2,53.0,41.4,30.0,62,32,9,30.16,30.03,17,2,0,0.00
2013-3-3,71.8,60.7,51.4,52.0,47.6,39.0,85,62,37,30.06,29.93,14,2,0,0.02
2013-3-4,69.0,56.4,46.1,52.0,46.9,40.0,89,72,51,30.04,29.96,12,3,0,0.02
2013-3-5,69.0,56.0,47.9,52.0,47.1,42.0,87,74,51,30.07,29.98,13,3,0,0.00
2013-3-6,61.4,55.8,47.6,49.0,45.8,41.0,83,71,52,30.10,29.95,5,1,0,0.00
2013-3-7,64.3,57.3,52.4,50.0,46.2,40.0,87,68,38,29.96,29.78,11,2,0,0.13
2013-3-8,62.3,54.3,47.6,47.0,44.2,42.0,87,71,49,29.96,29.74,14,3,0,0.44
2013-3-9,67.7,55.2,43.3,48.0,43.0,35.0,88,65,38,30.16,29.96,13,2,0,0.00
2013-3-10,78.7,59.4,43.1,49.0,39.7,31.0,74,44,5,30.22,30.11,15,3,0,0.00
2013-3-11,73.8,58.7,43.5,50.0,41.6,31.0,67,51,29,30.12,30.00,16,3,0,0.00
2013-3-12,76.0,60.5,45.6,55.0,45.7,36.0,74,57,34,30.04,29.96,11,2,0,0.00
2013-3-13,78.7,63.5,47.9,59.0,47.6,38.0,75,55,33,30.05,29.98,12,2,0,0.00
2013-3-14,76.2,61.9,47.4,55.0,48.1,39.0,81,60,35,30.04,29.96,17,3,0,0.00
2013-3-15,71.7,60.5,52.6,57.0,51.1,46.0,90,73,55,29.98,29.88,14,3,0,0.00
2013-3-16,67.5,58.4,53.2,54.0,50.5,46.0,90,77,58,29.94,29.83,11,2,0,0.00
2013-3-17,72.4,57.4,48.1,55.0,48.4,42.0,90,74,46,29.96,29.87,11,2,0,0.00
2013-3-18,67.5,56.7,47.4,53.0,48.1,43.0,91,75,55,30.03,29.92,18,2,0,0.00
2013-3-19,70.4,59.1,48.8,55.0,49.8,44.0,89,73,56,30.06,29.97,11,3,0,0.00
2013-3-20,72.0,61.6,53.0,56.0,50.8,47.0,88,69,47,30.04,29.89,10,2,0,0.00
2013-3-21,73.3,60.8,49.6,55.0,49.5,44.0,87,67,46,29.90,29.76,13,3,0,0.00
2013-3-22,73.8,59.6,44.9,54.0,44.8,34.0,88,57,32,29.85,29.73,14,3,0,0.00
2013-3-23,73.5,58.6,43.1,53.0,40.8,26.0,75,49,27,29.95,29.84,15,3,0,0.00
2013-3-24,74.9,60.2,46.5,56.0,46.8,38.0,81,61,36,29.97,29.84,14,2,0,0.00
2013-3-25,71.7,59.9,46.7,57.0,47.2,36.0,79,63,47,29.91,29.85,13,2,0,0.00
2013-3-26,71.1,59.8,49.6,54.0,49.0,44.0,88,69,49,29.91,29.86,14,3,0,0.00
2013-3-27,71.8,60.0,49.2,54.0,49.2,43.0,89,69,48,29.99,29.87,18,3,0,0.00
2013-3-28,73.8,59.9,50.3,56.0,50.3,44.0,89,72,49,30.02,29.96,17,2,0,0.00
2013-3-29,73.1,60.5,50.3,58.0,51.6,44.0,92,74,53,30.06,29.98,11,3,0,0.00
2013-3-30,74.2,62.8,56.7,56.0,52.5,49.0,86,70,46,30.07,30.00,11,3,0,0.00
2013-3-31,69.0,61.8,56.7,59.0,53.3,50.0,85,75,59,30.06,30.00,14,3,0,0.06
2013-4-1,69.7,61.2,55.7,55.0,51.5,49.0,86,72,54,30.11,30.02,15,4,0,0.00
2013-4-2,73.5,61.9,49.9,55.0,50.9,45.0,88,68,45,30.04,29.94,12,2,0,0.00
2013-4-3,77.4,63.1,52.3,58.0,52.9,46.0,89,70,45,30.03,29.94,12,3,0,0.00
2013-4-4,73.6,62.8,57.6,57.0,53.8,51.0,85,74,48,30.06,29.96,15,4,0,0.01
2013-4-5,75.1,64.3,56.0,57.0,53.8,49.0,83,70,49,30.04,29.93,15,3,0,0.00
2013-4-6,74.9,62.5,51.0,57.0,51.8,46.0,89,69,45,30.04,29.89,17,3,0,0.00
2013-4-7,79.0,64.2,50.6,57.0,51.7,46.0,88,64,31,29.91,29.73,12,3,0,0.00
2013-4-8,75.3,62.1,54.1,50.0,44.9,41.0,82,51,16,29.79,29.60,20,4,0,0.00
2013-4-9,76.0,61.5,46.0,48.0,42.2,36.0,73,45,9,29.95,29.78,17,3,0,0.00
2013-4-10,85.1,68.8,54.6,52.0,42.2,30.0,52,25,2,30.05,29.92,14,3,0,0.00
2013-4-11,75.4,62.7,48.8,54.0,46.1,37.0,73,52,34,29.92,29.72,12,3,0,0.00
2013-4-12,74.0,61.2,51.2,56.0,50.1,43.0,88,68,48,29.82,29.74,15,3,0,0.00
2013-4-13,70.4,60.3,54.2,55.0,51.5,46.0,87,74,56,29.86,29.79,12,3,0,0.00
2013-4-14,66.5,60.9,57.5,53.0,51.6,50.0,84,73,58,29.83,29.76,18,4,0,0.00
2013-4-15,69.9,61.0,54.4,52.0,49.0,42.0,80,65,49,29.84,29.78,19,4,0,0.00
2013-4-16,69.9,58.5,46.5,48.0,42.7,38.0,82,55,28,29.96,29.81,16,3,0,0.00
2013-4-17,74.9,59.7,43.5,46.0,40.6,35.0,80,45,10,30.08,29.96,16,4,0,0.00
2013-4-18,84.6,66.5,51.5,85.0,37.5,26.0,100,18,1,30.17,30.07,24,4,0,0.00
2013-4-19,84.2,67.2,48.7,54.0,42.6,29.0,62,30,3,30.11,29.93,15,3,0,0.00
2013-4-20,87.8,68.7,50.8,62.0,48.3,36.0,63,42,19,29.94,29.84,15,3,0,0.00
2013-4-21,85.7,68.8,53.2,60.0,51.7,41.0,76,51,21,29.96,29.88,12,3,0,0.00
2013-4-22,75.3,65.2,58.0,57.0,53.6,51.0,82,66,47,29.95,29.84,16,4,0,0.00
2013-4-23,76.2,66.3,59.8,57.0,52.4,49.0,73,60,43,29.91,29.82,15,3,0,0.00
2013-4-24,64.8,60.9,58.9,55.0,52.5,50.0,81,75,69,29.94,29.84,9,2,0,0.00
2013-4-25,75.6,65.0,55.7,54.0,50.6,46.0,82,59,33,30.07,29.91,14,3,0,0.00
2013-4-26,77.6,64.5,50.3,57.0,50.0,42.0,78,59,38,30.09,30.04,26,3,0,0.00
2013-4-27,78.7,65.9,51.9,59.0,52.9,45.0,86,62,42,30.08,29.94,14,3,0,0.00
2013-4-28,77.4,64.9,55.5,60.0,54.0,49.0,88,68,49,29.96,29.80,18,4,0,0.00
2013-4-29,76.5,66.2,58.2,60.0,55.4,52.0,85,69,51,29.84,29.74,12,3,0,0.00
2013-4-30,75.3,66.5,61.1,57.0,54.7,53.0,81,66,46,29.83,29.77,14,3,0,0.00
2013-5-1,78.8,69.5,60.5,60.0,55.2,50.0,73,59,44,30.04,29.83,21,4,0,0.00
2013-5-2,94.3,74.7,51.9,94.0,65.9,32.0,100,75,1,30.09,29.96,17,4,0,0.00
2013-5-3,98.6,76.0,57.6,99.0,52.1,29.0,100,33,1,29.98,29.71,12,2,0,0.00
2013-5-4,83.9,68.6,55.3,61.0,51.7,39.0,69,52,27,29.78,29.67,12,3,0,0.00
2013-5-5,69.0,63.5,60.7,55.0,51.0,49.0,81,64,50,29.88,29.77,10,3,0,0.00
2013-5-6,71.5,64.5,58.9,57.0,53.2,49.0,88,68,40,29.96,29.83,7,2,0,0.09
2013-5-7,77.4,67.2,58.7,56.0,52.8,50.0,83,59,33,30.01,29.92,16,3,0,0.00
2013-5-8,75.8,66.4,58.7,56.0,52.1,49.0,82,59,33,30.04,30.01,14,3,0,0.00
2013-5-9,75.6,65.5,53.2,57.0,51.8,45.0,80,61,45,30.04,29.96,16,3,0,0.00
2013-5-10,82.4,68.6,55.3,62.0,55.7,50.0,88,63,42,30.04,29.95,14,4,0,0.00
2013-5-11,84.4,70.5,56.6,65.0,57.5,49.0,82,63,44,30.01,29.95,15,3,0,0.00
2013-5-12,90.9,76.0,58.5,68.0,60.1,51.0,86,55,33,29.99,29.86,21,3,0,0.00
2013-5-13,92.7,76.2,63.2,69.0,59.5,51.0,72,52,29,29.92,29.85,10,3,0,0.00
2013-5-14,78.0,66.7,57.5,58.0,54.1,49.0,85,63,42,29.94,29.86,11,3,0,0.00
2013-5-15,77.4,66.2,53.3,59.0,52.9,46.0,81,62,46,29.98,29.89,14,3,0,0.00
2013-5-16,77.1,64.5,54.4,59.0,52.7,46.0,83,66,48,29.93,29.85,11,2,0,0.00
2013-5-17,77.4,67.0,56.6,59.0,53.8,49.0,82,62,43,29.93,29.85,15,3,0,0.00
2013-5-18,79.0,73.4,60.7,60.0,55.3,50.0,70,48,37,29.97,29.91,13,4,0,0.00
2013-5-19,82.3,68.5,52.4,66.0,53.9,45.0,85,58,35,29.93,29.80,16,3,0,0.00
2013-5-20,83.5,71.1,55.1,63.0,56.5,48.0,84,58,40,29.89,29.82,17,3,0,0.00
2013-5-21,81.4,69.8,57.8,64.0,56.8,50.0,82,63,48,29.88,29.77,17,3,0,0.00
2013-5-22,77.6,67.2,58.2,59.0,52.6,47.0,78,58,37,29.80,29.72,17,4,0,0.00
2013-5-23,76.7,65.7,55.0,56.0,50.5,45.0,76,56,37,29.89,29.77,14,3,0,0.00
2013-5-24,77.1,65.4,52.6,58.0,50.7,43.0,78,58,41,29.93,29.85,15,3,0,0.00
2013-5-25,78.5,65.7,51.7,59.0,51.3,43.0,81,58,42,29.95,29.90,17,4,0,0.00
2013-5-26,77.8,66.6,52.8,58.0,52.3,45.0,81,59,42,29.98,29.92,15,3,0,0.00
2013-5-27,80.3,67.8,55.0,60.0,53.9,47.0,83,60,37,29.95,29.79,13,3,0,0.00
2013-5-28,83.3,70.3,56.0,63.0,56.4,49.0,85,60,39,29.83,29.69,13,3,0,0.00
2013-5-29,86.8,71.1,56.6,63.0,56.5,50.0,85,58,30,29.76,29.66,15,3,0,0.00
2013-5-30,83.2,70.9,56.2,64.0,56.8,49.0,82,60,41,29.81,29.71,17,3,0,0.00
2013-5-31,82.1,70.9,58.2,64.0,57.9,51.0,88,63,45,29.86,29.76,9,3,0,0.00
2013-6-1,87.1,71.9,60.2,67.0,59.1,51.0,87,63,42,29.80,29.68,14,3,0,0.00
2013-6-2,79.9,68.3,59.8,64.0,58.4,54.0,87,71,54,29.77,29.72,16,3,0,0.00
2013-6-3,83.5,70.5,63.9,64.0,58.4,55.0,82,65,42,29.84,29.74,16,3,0,0.00
2013-6-4,78.8,69.6,59.8,61.0,57.0,50.0,79,64,47,29.92,29.83,14,4,0,0.00
2013-6-5,77.8,65.7,55.0,60.0,54.2,47.0,82,67,48,29.95,29.87,14,3,0,0.00
2013-6-6,78.3,66.7,57.5,61.0,55.5,49.0,84,68,49,29.90,29.82,13,3,0,0.00
2013-6-7,79.7,69.1,62.1,62.0,57.4,54.0,80,66,48,29.86,29.73,17,4,0,0.00
2013-6-8,78.7,69.8,64.3,62.0,58.4,56.0,80,67,50,29.85,29.73,18,4,0,0.00
2013-6-9,80.5,70.1,63.6,63.0,58.3,55.0,82,66,50,29.86,29.82,17,4,0,0.00
2013-6-10,81.7,71.7,64.1,61.0,56.9,54.0,75,58,38,29.90,29.83,15,3,0,0.00
2013-6-11,83.3,72.2,59.6,64.0,59.0,53.0,87,62,44,29.89,29.83,12,3,0,0.00
2013-6-12,78.7,69.3,63.4,62.0,58.5,56.0,83,68,51,29.96,29.87,14,4,0,0.00
2013-6-13,80.1,70.9,64.3,62.0,58.3,53.0,79,64,48,29.96,29.84,12,3,0,0.00
2013-6-14,80.8,69.6,56.4,63.0,57.3,49.0,87,64,47,29.86,29.78,16,4,0,0.00
2013-6-15,79.2,70.5,63.4,60.0,57.7,55.0,80,63,45,29.92,29.82,15,4,0,0.00
2013-6-16,81.0,70.5,63.0,62.0,57.5,53.0,78,63,45,29.99,29.89,25,4,0,0.00
2013-6-17,83.0,69.1,56.6,63.0,56.6,49.0,85,64,43,29.93,29.82,18,3,0,0.00
2013-6-18,81.5,70.2,57.1,62.0,56.3,50.0,86,60,38,29.87,29.78,15,3,0,0.00
2013-6-19,88.7,71.6,56.0,62.0,55.2,48.0,82,53,18,29.81,29.72,14,3,0,0.00
2013-6-20,85.7,71.8,55.5,63.0,55.2,47.0,78,53,27,29.80,29.75,13,3,0,0.00
2013-6-21,85.9,71.9,57.1,99.9,56.7,48.0,79,54,31,29.83,29.78,14,3,0,0.36
2013-6-22,82.6,71.3,57.6,63.0,56.7,49.0,81,58,41,29.85,29.77,17,4,0,0.00
2013-6-23,78.0,68.1,57.5,62.0,56.0,50.0,82,65,50,29.82,29.74,13,3,0,0.00
2013-6-24,80.6,69.2,58.5,62.0,57.8,52.0,87,67,47,29.89,29.76,11,3,0,0.00
2013-6-25,81.0,73.3,64.8,64.0,60.7,57.0,80,63,49,29.93,29.85,14,3,0,0.00
2013-6-26,86.9,75.7,62.1,67.0,61.9,55.0,82,60,43,29.92,29.86,14,3,0,0.00
2013-6-27,90.2,78.4,65.7,71.0,64.2,57.0,79,59,40,29.96,29.89,15,3,0,0.00
2013-6-28,91.6,78.9,64.5,71.0,64.1,58.0,84,57,38,29.92,29.82,11,3,0,0.00
2013-6-29,94.7,80.7,64.5,72.0,64.8,57.0,82,54,33,29.82,29.68,12,3,0,0.00
2013-6-30,97.0,81.3,67.3,73.0,65.7,59.0,79,56,32,29.76,29.66,12,3,0,0.00
2013-7-1,90.2,77.5,67.2,71.0,65.4,61.0,85,65,46,29.82,29.73,12,3,0,0.00
2013-7-2,86.2,75.4,66.1,68.0,63.8,59.0,85,66,47,29.94,29.81,13,3,0,0.00
2013-7-3,85.3,73.4,65.7,68.0,62.6,59.0,84,69,49,29.86,29.75,21,4,0,0.00
2013-7-4,85.0,74.1,65.6,67.0,62.3,59.0,84,66,46,29.78,29.70,18,4,0,0.00
2013-7-5,84.4,73.5,67.0,66.0,62.3,59.0,81,67,48,29.79,29.70,14,3,0,0.00
2013-7-6,84.4,74.2,67.5,67.0,62.5,58.0,79,66,49,29.77,29.70,13,3,0,0.00
2013-7-7,85.3,72.9,49.0,66.0,60.8,17.0,84,65,4,29.81,29.73,16,3,0,0.00
2013-7-8,89.1,74.4,61.8,67.0,60.9,54.0,86,61,37,29.87,29.80,13,3,0,0.00
2013-7-9,89.1,74.8,60.7,68.0,61.0,54.0,88,60,38,29.92,29.85,16,4,0,0.00
2013-7-10,85.9,72.9,63.4,68.0,61.4,55.0,82,67,47,29.91,29.83,14,2,0,0.00
2013-7-11,81.2,73.7,68.4,67.0,63.3,60.0,80,70,59,29.90,29.83,11,2,0,0.00
2013-7-12,85.3,73.9,64.3,68.0,62.4,58.0,87,67,47,29.87,29.81,14,3,0,0.42
2013-7-13,84.8,73.1,64.3,66.0,61.0,56.0,86,65,45,29.90,29.81,12,3,0,0.19
2013-7-14,86.9,73.9,60.0,67.0,59.9,53.0,82,60,37,29.88,29.75,14,3,0,0.00
2013-7-15,86.4,73.2,60.5,65.0,58.4,53.0,82,57,35,29.81,29.76,16,3,0,0.00
2013-7-16,85.7,71.4,58.7,64.0,57.0,50.0,87,59,33,29.91,29.81,13,3,0,0.00
2013-7-17,87.8,72.9,56.6,65.0,56.9,48.0,78,54,30,29.96,29.91,14,3,0,0.00
2013-7-18,85.9,72.6,59.8,65.0,58.4,51.0,86,59,37,29.93,29.81,12,3,0,0.00
2013-7-19,83.9,71.4,58.7,64.0,57.6,51.0,82,60,42,29.85,29.76,14,3,0,0.00
2013-7-20,83.7,71.1,59.1,66.0,59.3,52.0,85,66,49,29.83,29.72,17,3,0,0.48
2013-7-21,68.8,68.5,67.9,63.0,60.4,-33.0,81,76,4,29.87,29.84,2,0,0,6.86
2013-7-22,83.2,72.8,65.6,67.0,62.6,58.0,88,70,52,29.92,29.85,13,4,0,0.02
2013-7-23,82.8,72.8,65.4,65.0,61.0,58.0,83,66,48,29.97,29.88,14,4,0,0.00
2013-7-24,81.2,71.0,64.3,64.0,59.6,56.0,85,67,49,29.92,29.84,15,3,0,0.00
2013-7-25,81.7,70.7,62.5,64.0,59.3,55.0,86,67,49,29.95,29.87,14,4,0,0.00
2013-7-26,82.1,70.6,63.9,64.0,59.5,56.0,82,68,48,30.04,29.93,10,2,0,0.00
2013-7-27,82.3,71.2,62.7,64.0,59.0,55.0,84,65,47,29.95,29.82,14,4,0,0.00
2013-7-28,78.8,69.4,62.9,63.0,58.8,56.0,82,69,54,29.87,29.81,13,4,0,0.00
2013-7-29,80.1,70.7,63.8,62.0,58.6,54.0,82,65,48,29.97,29.85,18,4,0,0.00
2013-7-30,79.4,69.3,61.2,62.0,57.5,53.0,84,66,48,30.06,29.97,13,3,0,0.00
2013-7-31,78.5,67.4,59.8,61.0,56.3,51.0,84,68,49,30.05,29.94,13,3,0,0.00
2013-8-1,79.7,69.2,62.0,62.0,57.5,54.0,82,66,47,29.97,29.84,12,3,0,0.00
2013-8-2,81.9,69.4,56.9,64.0,57.3,50.0,88,65,48,29.90,29.85,11,3,0,0.00
2013-8-3,81.2,69.0,60.7,63.0,57.9,52.0,88,68,48,29.94,29.87,13,3,0,0.00
2013-8-4,80.3,68.3,59.3,63.0,57.6,52.0,88,69,48,29.96,29.87,13,3,0,0.00
2013-8-5,81.0,68.2,57.5,62.0,57.0,51.0,88,68,43,29.95,29.86,16,3,0,0.00
2013-8-6,80.5,69.2,60.2,62.0,57.7,51.0,87,67,46,29.99,29.90,14,4,0,0.00
2013-8-12,82.4,75.2,64.8,65.0,60.9,56.0,74,59,49,29.90,29.84,15,5,0,0.00
2013-8-13,83.7,70.9,61.2,66.0,60.0,55.0,88,68,47,29.91,29.82,13,3,0,0.00
2013-8-14,85.7,71.4,60.5,67.0,60.6,56.0,89,69,45,29.87,29.77,11,3,0,0.00
2013-8-15,85.5,72.0,62.0,68.0,61.4,56.0,86,69,49,29.88,29.82,13,3,0,0.00
2013-8-16,85.3,73.9,64.1,67.0,62.3,58.0,87,66,45,29.90,29.84,14,3,0,0.00
2013-8-17,83.9,72.3,62.0,66.0,60.1,55.0,87,65,46,29.89,29.76,12,3,0,0.01
2013-8-18,83.2,70.5,60.9,65.0,59.6,55.0,87,69,48,29.84,29.75,12,3,0,0.00
2013-8-19,82.1,70.3,62.7,66.0,60.2,56.0,85,71,54,29.89,29.80,15,3,0,0.00
2013-8-20,84.6,71.1,63.8,66.0,60.0,55.0,84,68,45,29.89,29.80,13,3,0,0.00
2013-8-21,83.5,70.6,58.9,64.0,58.2,52.0,87,64,43,29.87,29.79,14,3,0,0.00
2013-8-22,89.3,73.6,58.9,65.0,58.4,52.0,86,57,29,29.86,29.77,12,3,0,0.00
2013-8-23,86.6,72.2,57.3,65.0,57.1,48.0,79,57,34,29.81,29.69,12,3,0,0.00
2013-8-24,85.0,70.3,55.7,65.0,57.7,50.0,86,64,40,29.81,29.71,18,3,0,0.00
2013-8-25,86.9,71.3,56.2,66.0,58.6,50.0,87,63,39,29.86,29.78,15,3,0,0.00
2013-8-26,90.2,74.5,56.9,66.0,58.4,49.0,82,54,27,29.86,29.77,11,3,0,0.00
2013-8-27,89.8,77.1,68.2,68.0,61.2,55.0,74,54,33,29.79,29.72,12,3,0,0.00
2013-8-28,91.6,77.1,64.7,67.0,60.9,56.0,78,54,27,29.83,29.72,14,3,0,0.00
2013-8-29,94.8,78.9,63.2,69.0,61.2,53.0,73,50,26,29.87,29.81,15,3,0,0.00
2013-8-30,97.7,82.9,68.6,74.0,65.5,56.0,74,50,31,29.90,29.83,12,3,0,0.00
2013-8-31,93.2,82.6,73.1,75.0,67.3,61.0,72,56,42,29.90,29.82,15,3,0,0.00
2013-9-1,90.7,80.8,72.9,73.0,67.1,62.0,74,61,48,29.87,29.79,14,3,0,0.00
2013-9-2,90.2,78.1,68.6,72.0,66.3,62.0,83,66,47,29.86,29.75,13,3,0,0.00
2013-9-3,95.0,80.2,67.2,73.0,66.5,61.0,86,61,37,29.84,29.76,13,3,0,0.00
2013-9-4,94.1,79.0,66.1,71.0,64.1,58.0,83,57,33,29.85,29.78,11,3,0,0.00
2013-9-5,94.5,78.1,63.9,71.0,63.2,56.0,83,57,34,29.83,29.76,11,3,0,0.00
2013-9-6,95.6,78.9,64.1,72.0,62.7,55.0,79,54,29,29.81,29.73,14,2,0,0.00
2013-9-7,91.1,75.9,63.6,68.0,60.3,52.0,79,55,31,29.81,29.74,11,3,0,0.00
2013-9-8,83.3,72.1,62.9,65.0,59.5,55.0,83,64,41,29.79,29.70,11,2,0,0.00
2013-9-9,78.7,68.1,61.4,63.0,58.5,55.0,87,72,54,29.76,29.68,13,3,0,0.00
2013-9-10,79.9,69.5,62.3,62.0,58.9,55.0,85,69,49,29.87,29.74,12,3,0,0.00
2013-9-11,80.5,69.4,62.0,64.0,58.9,55.0,85,69,51,29.94,29.86,11,2,0,0.00
2013-9-12,86.4,71.0,58.0,66.0,58.5,52.0,86,64,42,29.88,29.77,12,2,0,0.00
2013-9-13,86.2,72.1,58.5,66.0,58.9,52.0,86,62,39,29.76,29.61,12,3,0,0.00
2013-9-14,87.5,73.7,60.5,67.0,59.8,54.0,85,60,38,29.66,29.59,12,2,0,0.00
2013-9-15,86.6,73.1,60.0,67.0,60.0,54.0,88,62,40,29.71,29.61,17,3,0,0.00
2013-9-16,87.3,71.9,59.8,66.0,59.3,53.0,87,64,38,29.76,29.69,11,3,0,0.00
2013-9-17,79.4,67.5,56.6,63.0,56.8,51.0,89,69,49,29.76,29.67,13,3,0,0.00
2013-9-18,79.0,67.6,56.6,63.0,57.3,51.0,91,70,51,29.75,29.68,16,3,0,0.24
2013-9-19,79.2,68.2,57.8,64.0,58.8,52.0,90,72,54,29.77,29.69,12,3,0,0.00
2013-9-20,76.5,69.0,65.0,63.0,60.1,58.0,82,74,60,29.83,29.75,17,2,0,0.00
2013-9-21,78.5,68.7,61.6,62.0,59.1,55.0,84,72,49,29.85,29.74,17,3,0,0.00
2013-9-22,81.4,68.0,55.7,59.0,54.7,44.0,88,62,29,29.79,29.70,11,2,0,0.00
2013-9-23,89.5,72.4,55.3,62.0,52.3,43.0,69,43,14,29.81,29.74,12,3,0,0.00
2013-9-24,88.2,72.1,58.9,62.0,52.4,42.0,71,44,20,29.87,29.77,12,2,0,0.00
2013-9-25,78.3,66.5,55.5,62.0,53.9,49.0,83,64,42,29.78,29.63,12,3,0,0.09
2013-9-26,77.6,66.0,56.7,56.0,51.5,47.0,81,58,26,29.83,29.65,14,3,0,0.00
2013-9-27,86.8,67.4,50.5,56.0,45.3,36.0,77,37,6,29.93,29.82,11,3,0,0.00
2013-9-28,86.6,69.5,54.4,57.0,45.2,34.0,49,31,6,29.97,29.90,12,2,0,0.00
2013-9-29,86.9,68.7,52.4,62.0,48.0,34.0,66,41,15,29.99,29.91,12,2,0,0.00
2013-9-30,84.4,68.6,53.5,61.0,51.1,39.0,81,50,24,29.91,29.77,11,2,0,0.00
2013-10-1,80.6,67.5,55.1,63.0,55.7,49.0,83,66,45,29.86,29.80,12,2,0,0.00
2013-10-2,78.7,66.8,56.9,62.0,56.4,50.0,90,70,49,29.91,29.82,15,2,0,0.00
2013-10-3,76.5,66.6,59.3,61.0,56.8,52.0,88,72,52,29.86,29.75,11,2,0,0.00
2013-10-4,85.1,71.4,53.7,84.0,48.8,33.0,100,36,1,29.98,29.81,16,4,0,0.00
2013-10-5,88.7,78.9,70.8,89.0,49.4,39.0,100,17,1,30.08,29.97,14,5,0,0.00
2013-10-6,96.3,75.3,59.4,95.0,48.5,33.0,100,24,1,30.03,29.90,11,2,0,0.00
2013-10-7,83.9,67.2,55.8,60.0,47.1,34.0,79,43,13,29.92,29.83,13,2,0,0.00
2013-10-8,75.3,63.6,51.5,59.0,52.8,44.0,82,69,52,29.86,29.75,13,3,0,0.00
2013-10-9,65.6,61.0,52.3,54.0,50.1,45.0,80,69,49,29.75,29.63,11,4,0,0.00
2013-10-10,71.5,58.7,46.5,53.0,47.5,41.0,88,68,44,29.96,29.73,18,2,0,0.00
2013-10-11,74.0,60.7,48.8,57.0,50.0,43.0,89,69,46,29.98,29.89,12,2,0,0.00
2013-10-12,75.6,61.1,49.6,59.0,51.3,44.0,91,71,48,29.91,29.82,16,2,0,0.00
2013-10-13,72.2,61.0,50.3,56.0,51.9,45.0,89,73,51,29.95,29.86,14,2,0,0.00
2013-10-22,63.4,61.7,59.3,56.0,54.2,-9.0,82,78,72,29.89,29.86,3,1,0,0.00
2013-10-23,72.0,62.1,56.7,57.0,54.0,51.0,91,76,57,29.91,29.83,10,2,0,0.00
2013-10-24,73.6,64.6,60.7,57.0,54.3,52.0,79,70,52,29.99,29.88,13,2,0,0.00
2013-10-25,75.3,63.2,56.6,59.0,54.7,51.0,88,75,52,30.06,29.94,10,2,0,0.00
2013-10-26,75.8,62.0,50.3,61.0,53.6,46.0,90,75,54,30.02,29.91,9,2,0,0.00
2013-10-27,71.5,58.8,0.0,99.9,51.0,-36.0,84,76,58,29.91,29.75,11,3,0,6.90
2013-10-28,68.1,60.6,56.2,54.0,49.4,47.0,82,67,42,29.86,29.72,17,5,0,0.00
2013-10-29,68.6,58.6,49.6,52.0,48.2,44.0,86,70,48,29.94,29.85,12,2,0,0.00
2013-10-30,72.4,58.3,47.0,53.0,47.4,42.0,90,69,28,29.99,29.91,13,2,0,0.00
2013-10-31,75.8,60.2,45.8,54.0,45.5,39.0,83,58,22,30.01,29.93,12,2,0,0.00
2013-11-1,84.6,65.0,51.2,59.0,44.4,33.0,66,42,10,30.03,29.88,11,2,0,0.00
2013-11-2,80.3,63.9,53.0,55.0,45.2,34.0,76,47,20,29.92,29.80,11,2,0,0.00
2013-11-3,71.7,59.7,49.4,58.0,51.0,44.0,91,74,54,29.85,29.75,10,2,0,0.00
2013-11-4,71.3,61.2,52.1,56.0,51.9,46.0,88,73,51,29.88,29.72,14,2,0,0.12
2013-11-5,74.7,62.0,49.9,47.0,35.7,27.0,85,25,3,30.09,29.89,11,3,0,0.00
2013-11-6,81.7,66.8,54.4,82.0,39.8,25.0,100,24,1,30.14,30.05,11,2,0,0.00
2013-11-7,85.3,67.1,55.1,55.0,39.1,29.0,36,21,4,30.06,29.92,13,2,0,0.00
2013-11-8,78.8,61.8,48.8,57.0,43.4,29.0,81,48,19,29.95,29.86,10,2,0,0.00
2013-11-9,73.5,58.9,47.8,57.0,48.4,39.0,88,70,46,30.00,29.91,10,2,0,0.00
2013-11-10,78.7,59.2,47.8,56.0,46.8,40.0,82,64,3,30.05,29.96,15,2,0,0.00
2013-11-11,74.4,59.0,46.0,55.0,45.8,36.0,84,62,31,30.06,29.96,11,2,0,0.00
2013-11-12,76.3,62.0,52.8,58.0,49.5,41.0,84,64,38,30.09,30.00,7,1,0,0.00
2013-11-13,91.1,71.2,54.4,60.0,44.8,34.0,55,25,2,30.01,29.84,13,2,0,0.00
2013-11-14,86.2,69.0,57.3,63.0,47.2,36.0,74,38,7,29.87,29.69,14,2,0,0.00
2013-11-15,70.6,59.8,51.7,57.0,50.0,45.0,88,72,54,29.70,29.60,14,2,0,0.00
2013-11-16,69.3,61.3,53.5,55.0,52.5,48.0,88,74,58,29.87,29.67,13,3,0,0.00
2013-11-17,70.6,60.1,52.4,55.0,50.7,46.0,88,72,48,30.02,29.86,10,2,0,0.00
2013-11-18,68.2,57.2,47.9,55.0,49.5,43.0,92,77,60,30.09,29.98,10,2,0,0.00
2013-11-19,69.0,59.4,52.1,55.0,51.1,47.0,88,76,57,30.02,29.88,9,2,0,0.00
2013-11-20,69.3,60.9,54.4,57.0,53.2,49.0,88,77,56,29.90,29.79,12,2,0,0.11
2013-11-21,67.5,61.0,56.2,59.0,54.4,42.0,91,80,60,29.82,29.75,10,2,0,0.26
2013-11-22,61.1,56.4,53.9,42.0,39.9,37.0,60,53,46,29.92,29.80,13,6,0,0.00
2013-11-23,65.2,57.7,53.2,44.0,40.8,38.0,60,52,38,30.03,29.90,12,4,0,0.00
2013-11-24,69.7,58.3,49.6,49.0,43.1,40.0,77,56,30,30.13,30.01,10,3,0,0.00
2013-11-25,73.3,58.7,47.2,52.0,42.7,37.0,75,54,21,30.15,30.08,13,3,0,0.00
2013-11-26,75.6,62.4,50.5,55.0,44.7,37.0,71,49,17,30.11,29.96,11,2,0,0.00
2013-11-27,76.5,63.7,53.7,50.0,43.9,39.0,79,44,18,29.96,29.79,9,2,0,0.00
2013-11-28,69.3,59.6,50.8,49.0,43.5,38.0,67,54,32,29.98,29.81,6,1,0,0.00
2013-11-29,69.9,62.3,55.8,52.0,47.6,43.0,83,58,44,30.11,29.97,10,2,0,0.03
2013-11-30,77.1,61.3,52.1,52.0,44.0,38.0,74,50,21,30.11,30.00,9,2,0,0.00
2013-12-1,79.7,65.8,54.2,48.0,40.5,36.0,51,29,8,30.16,30.03,11,3,0,0.00
2013-12-2,73.6,59.6,50.6,49.0,40.0,33.0,61,44,21,30.05,29.83,7,1,0,0.00
2013-12-3,67.0,55.3,44.3,54.0,42.8,33.0,76,64,55,29.83,29.65,14,3,0,0.00
2013-12-4,63.0,50.2,40.2,43.0,30.8,23.0,77,45,10,29.88,29.70,8,2,0,0.00
2013-12-5,61.4,47.4,37.5,38.0,29.3,22.0,67,48,27,30.02,29.87,11,2,0,0.00
2013-12-6,60.9,46.4,35.9,42.0,33.5,26.0,76,63,44,30.09,30.01,9,1,0,0.00
2013-12-7,58.2,46.2,37.9,49.0,36.7,27.0,92,72,47,30.04,29.89,11,2,0,0.20
2013-12-8,58.2,44.3,33.2,37.0,28.4,20.0,75,55,29,30.14,30.02,8,2,0,0.00
2013-12-9,56.6,49.5,44.3,23.0,18.3,14.0,30,12,1,30.25,30.12,18,6,0,0.00
2013-12-10,64.5,53.5,46.1,29.0,20.4,14.0,21,7,1,30.22,30.03,18,4,0,0.00
2013-12-11,69.7,56.6,44.9,36.0,25.9,17.0,28,13,3,30.11,30.03,12,3,0,0.00
2013-12-12,68.2,55.9,45.1,46.0,33.5,24.0,69,36,10,30.12,30.05,13,2,0,0.00
2013-12-13,65.6,50.0,39.5,50.0,38.5,30.0,88,67,42,30.15,30.05,8,2,0,0.00
2013-12-14,72.9,63.1,43.3,41.0,34.8,28.0,88,20,7,30.23,30.12,12,4,0,0.00
2013-12-15,78.7,66.5,55.5,45.0,35.9,28.0,28,14,3,30.21,30.04,9,3,0,0.00
2013-12-16,84.6,70.7,61.6,51.0,39.8,33.0,22,13,2,30.07,29.98,10,2,0,0.00
2013-12-17,85.0,69.0,61.8,56.0,42.8,34.0,63,26,3,30.04,29.93,11,2,0,0.00
2013-12-18,69.1,61.3,56.0,55.0,49.5,39.0,83,66,36,29.92,29.78,10,2,0,0.00
2013-12-19,60.5,54.8,44.3,50.0,44.4,37.0,84,70,50,29.78,29.62,12,2,0,0.00
2013-12-20,66.3,51.9,41.7,46.0,38.6,34.0,86,62,20,29.87,29.72,11,2,0,0.00
2013-12-21,65.7,51.6,41.5,50.0,41.8,34.0,88,71,47,30.02,29.84,7,1,0,0.00
2013-12-22,66.3,52.4,42.7,52.0,44.8,38.0,90,78,57,30.19,30.01,11,2,0,0.00
2013-12-23,75.6,60.6,46.5,51.0,41.3,34.0,86,45,17,30.24,30.13,10,2,0,0.00
2013-12-24,80.1,64.9,53.9,49.0,41.5,36.0,56,34,8,30.13,30.01,13,2,0,0.00
2013-12-25,77.2,69.5,63.4,45.0,39.0,32.0,26,14,3,30.16,30.07,10,4,0,0.00
2013-12-26,78.7,67.4,56.9,79.0,42.4,26.0,100,30,1,30.11,30.01,12,3,0,0.00
2013-12-27,82.6,63.2,51.4,82.0,37.1,22.0,100,26,1,30.08,29.96,9,2,0,0.00
2013-12-28,72.6,58.9,47.9,52.0,38.1,26.0,73,41,16,29.96,29.85,10,2,0,0.00
2013-12-29,74.5,62.3,44.7,74.0,34.1,24.0,100,20,1,30.07,29.93,16,4,0,0.00
2013-12-30,73.6,58.0,47.6,44.0,30.8,21.0,44,23,9,30.17,30.07,10,2,0,0.00
2013-12-31,69.3,53.4,41.7,50.0,35.2,22.0,79,48,21,30.12,30.01,8,2,0,0.00
2014-1-1,71.3,54.5,41.8,54.0,41.2,30.0,81,62,36,30.06,29.96,9,2,0,0.00
2014-1-2,79.6,62.9,53.9,54.0,39.0,31.0,49,32,9,30.03,29.92,8,2,0,0.00